| time (UTC) | temp F | wind direction | speed knots | gust knots | rain 1hr in | rain 24hr in | rain mn in | humidity % | barometer mb |
| 20260510201828 | 76 | 218 | 0.0 | 0.9 | 0.00 | 0.09 | 0.00 | 48 | 1034.8 |
| 20260510201745 | 76 | 225 | 0.0 | 0.9 | 0.00 | 0.09 | 0.00 | 47 | 1034.8 |
| 20260510200730 | 76 | 132 | 0.9 | 1.7 | 0.00 | 0.10 | 0.00 | 49 | 1034.8 |
| 20260510195828 | 77 | 112 | 0.0 | 0.9 | 0.00 | 0.10 | 0.00 | 48 | 1034.8 |
| 20260510194829 | 78 | 135 | 0.0 | 0.0 | 0.00 | 0.10 | 0.00 | 45 | 1034.8 |
| 20260510193828 | 79 | 180 | 0.0 | 1.7 | 0.00 | 0.10 | 0.00 | 44 | 1034.8 |
| 20260510191829 | 79 | 133 | 0.0 | 1.7 | 0.00 | 0.10 | 0.00 | 43 | 1035.0 |
| 20260510191729 | 79 | 135 | 0.0 | 0.9 | 0.00 | 0.10 | 0.00 | 43 | 1035.0 |
| 20260510190730 | 80 | 90 | 0.0 | 0.9 | 0.00 | 0.10 | 0.00 | 40 | 1034.9 |
| 20260510185730 | 80 | 168 | 0.0 | 1.7 | 0.00 | 0.10 | 0.00 | 42 | 1034.9 |
| 20260510184827 | 80 | 172 | 1.7 | 3.5 | 0.00 | 0.10 | 0.00 | 40 | 1035.1 |
| 20260510184729 | 80 | 12 | 0.0 | 1.7 | 0.00 | 0.10 | 0.00 | 40 | 1035.0 |
| 20260510182827 | 81 | 135 | 0.0 | 0.9 | 0.00 | 0.10 | 0.00 | 38 | 1035.1 |
| 20260510181828 | 81 | 180 | 0.0 | 0.9 | 0.00 | 0.10 | 0.00 | 42 | 1035.1 |
| 20260510180829 | 81 | 165 | 0.0 | 0.9 | 0.00 | 0.10 | 0.00 | 42 | 1035.1 |
| 20260510175829 | 80 | 160 | 0.0 | 0.9 | 0.00 | 0.10 | 0.00 | 43 | 1035.1 |
| 20260510174830 | 80 | 248 | 0.0 | 0.0 | 0.00 | 0.10 | 0.00 | 45 | 1035.1 |
| 20260510172929 | 80 | 135 | 0.0 | 0.0 | 0.00 | 0.10 | 0.00 | 44 | 1035.1 |
| 20260510171931 | 78 | 157 | 0.0 | 0.0 | 0.00 | 0.10 | 0.00 | 46 | 1035.2 |
| 20260510165029 | 78 | 221 | 0.0 | 0.0 | 0.00 | 0.10 | 0.00 | 43 | 1035.1 |
| 20260510164029 | 78 | 135 | 0.0 | 1.7 | 0.00 | 0.10 | 0.00 | 44 | 1035.2 |
| 20260510161130 | 77 | 210 | 0.0 | 0.9 | 0.00 | 0.10 | 0.00 | 50 | 1035.1 |
| 20260510160127 | 76 | 180 | 0.0 | 0.0 | 0.00 | 0.10 | 0.00 | 51 | 1035.1 |
| 20260510155130 | 75 | 90 | 0.0 | 0.0 | 0.00 | 0.10 | 0.00 | 53 | 1035.2 |
| 20260510154227 | 75 | 149 | 0.0 | 1.7 | 0.00 | 0.10 | 0.00 | 52 | 1035.4 |
| 20260510153229 | 74 | 202 | 0.0 | 0.0 | 0.00 | 0.10 | 0.00 | 55 | 1035.4 |
| 20260510152328 | 74 | 180 | 0.0 | 0.9 | 0.00 | 0.10 | 0.00 | 55 | 1035.4 |
| 20260510150329 | 73 | 135 | 0.0 | 0.9 | 0.00 | 0.10 | 0.00 | 59 | 1035.5 |
| 20260510150228 | 73 | 135 | 0.0 | 0.0 | 0.00 | 0.10 | 0.00 | 59 | 1035.5 |
| 20260510144228 | 73 | 247 | 0.0 | 0.0 | 0.00 | 0.10 | 0.00 | 64 | 1035.6 |
| 20260510144130 | 73 | 247 | 0.0 | 0.0 | 0.00 | 0.10 | 0.00 | 65 | 1035.6 |
| 20260510142227 | 69 | 90 | 0.0 | 0.0 | 0.00 | 0.10 | 0.00 | 69 | 1035.5 |
| 20260510142129 | 69 | 90 | 0.0 | 0.0 | 0.00 | 0.10 | 0.00 | 69 | 1035.4 |
| 20260510142029 | 69 | 90 | 0.0 | 0.0 | 0.00 | 0.10 | 0.00 | 70 | 1035.5 |
| 20260510140028 | 64 | 112 | 0.0 | 0.0 | 0.00 | 0.10 | 0.00 | 80 | 1035.6 |
| 20260510134129 | 62 | 22 | 0.0 | 0.0 | 0.00 | 0.10 | 0.00 | 91 | 1035.5 |
| 20260510134029 | 62 | 22 | 0.0 | 0.0 | 0.00 | 0.10 | 0.00 | 92 | 1035.5 |
| 20260510133028 | 59 | 135 | 0.0 | 0.0 | 0.00 | 0.10 | 0.00 | 90 | 1035.5 |
| 20260510131929 | 57 | 135 | 0.0 | 0.0 | 0.00 | 0.10 | 0.00 | 93 | 1035.5 |
| 20260510130930 | 56 | 135 | 0.0 | 0.0 | 0.00 | 0.10 | 0.00 | 95 | 1035.6 |
| 20260510125928 | 55 | 135 | 0.0 | 0.0 | 0.00 | 0.10 | 0.00 | 96 | 1035.7 |
| 20260510123928 | 53 | 135 | 0.0 | 0.0 | 0.00 | 0.10 | 0.00 | 96 | 1035.5 |
| 20260510121928 | 53 | 135 | 0.0 | 0.0 | 0.00 | 0.10 | 0.00 | 97 | 1035.1 |
| 20260510121027 | 52 | 135 | 0.0 | 0.0 | 0.00 | 0.10 | 0.00 | 95 | 1035.2 |
| 20260510120029 | 52 | 135 | 0.0 | 0.0 | 0.00 | 0.10 | 0.00 | 97 | 1035.0 |
| 20260510115028 | 52 | 135 | 0.0 | 0.0 | 0.00 | 0.10 | 0.00 | 97 | 1035.0 |
| 20260510114127 | 52 | 135 | 0.0 | 0.0 | 0.00 | 0.10 | 0.00 | 96 | 1034.8 |
| 20260510114027 | 52 | 135 | 0.0 | 0.0 | 0.00 | 0.10 | 0.00 | 97 | 1034.8 |
| 20260510113029 | 52 | 135 | 0.0 | 0.0 | 0.00 | 0.10 | 0.00 | 97 | 1034.7 |
| 20260510112029 | 51 | 135 | 0.0 | 0.0 | 0.00 | 0.10 | 0.00 | 97 | 1034.6 |
| 20260510104030 | 50 | 135 | 0.0 | 0.0 | 0.00 | 0.10 | 0.00 | 96 | 1034.1 |
| 20260510103128 | 50 | 135 | 0.0 | 0.0 | 0.00 | 0.10 | 0.00 | 96 | 1034.0 |
| 20260510103029 | 50 | 135 | 0.0 | 0.0 | 0.00 | 0.10 | 0.00 | 97 | 1034.0 |
| 20260510102027 | 50 | 135 | 0.0 | 0.0 | 0.00 | 0.10 | 0.00 | 97 | 1034.1 |
| 20260510100929 | 50 | 135 | 0.0 | 0.0 | 0.00 | 0.10 | 0.00 | 97 | 1034.0 |
| 20260510100028 | 50 | 135 | 0.0 | 0.0 | 0.00 | 0.10 | 0.00 | 96 | 1034.0 |
| 20260510094927 | 50 | 135 | 0.0 | 0.0 | 0.00 | 0.10 | 0.00 | 97 | 1033.7 |
| 20260510094828 | 50 | 135 | 0.0 | 0.0 | 0.00 | 0.10 | 0.00 | 97 | 1033.6 |
| 20260510093844 | 50 | 135 | 0.0 | 0.0 | 0.00 | 0.10 | 0.00 | 96 | 1033.8 |
| 20260510092928 | 50 | 135 | 0.0 | 0.0 | 0.00 | 0.10 | 0.00 | 97 | 1033.7 |
| 20260510091929 | 50 | 135 | 0.0 | 0.0 | 0.00 | 0.10 | 0.00 | 97 | 1033.6 |
| 20260510091027 | 50 | 135 | 0.0 | 0.0 | 0.00 | 0.10 | 0.00 | 96 | 1033.7 |
| 20260510085931 | 49 | 135 | 0.0 | 0.0 | 0.00 | 0.10 | 0.00 | 96 | 1033.9 |
| 20260510085027 | 49 | 135 | 0.0 | 0.0 | 0.00 | 0.10 | 0.00 | 97 | 1033.7 |
| 20260510084927 | 49 | 135 | 0.0 | 0.9 | 0.00 | 0.10 | 0.00 | 97 | 1033.9 |
| 20260510083928 | 49 | 135 | 0.0 | 0.9 | 0.00 | 0.10 | 0.00 | 96 | 1034.1 |
| 20260510082929 | 49 | 135 | 0.0 | 0.0 | 0.00 | 0.10 | 0.00 | 95 | 1033.5 |
| 20260510081929 | 49 | 180 | 0.0 | 0.0 | 0.00 | 0.10 | 0.00 | 96 | 1033.2 |
| 20260510081843 | 49 | 180 | 0.0 | 0.0 | 0.00 | 0.10 | 0.00 | 96 | 1033.2 |
| 20260510080931 | 49 | 180 | 0.0 | 0.0 | 0.00 | 0.10 | 0.00 | 96 | 1033.1 |
| 20260510075929 | 49 | 180 | 0.0 | 0.0 | 0.00 | 0.10 | 0.00 | 96 | 1033.1 |
| 20260510073928 | 49 | 180 | 0.0 | 0.0 | 0.00 | 0.10 | 0.00 | 96 | 1033.1 |
| 20260510072930 | 49 | 180 | 0.0 | 0.0 | 0.00 | 0.10 | 0.00 | 96 | 1033.1 |
| 20260510071929 | 49 | 180 | 0.0 | 0.0 | 0.00 | 0.10 | 0.00 | 96 | 1033.2 |
| 20260510071028 | 49 | 180 | 0.0 | 0.0 | 0.00 | 0.10 | 0.00 | 95 | 1033.1 |
| 20260510070029 | 49 | 180 | 0.0 | 0.0 | 0.00 | 0.10 | 0.00 | 95 | 1032.8 |
| 20260510065028 | 49 | 180 | 0.0 | 0.0 | 0.00 | 0.10 | 0.00 | 94 | 1032.6 |
| 20260510064044 | 49 | 180 | 0.0 | 0.0 | 0.00 | 0.10 | 0.00 | 95 | 1032.5 |
| 20260510063129 | 49 | 180 | 0.0 | 0.0 | 0.00 | 0.10 | 0.00 | 95 | 1032.5 |
| 20260510062030 | 49 | 180 | 0.0 | 0.0 | 0.00 | 0.10 | 0.00 | 95 | 1032.5 |
| 20260510060928 | 49 | 180 | 0.0 | 0.0 | 0.00 | 0.10 | 0.00 | 95 | 1032.5 |
| 20260510055929 | 49 | 180 | 0.0 | 0.0 | 0.00 | 0.10 | 0.00 | 95 | 1032.7 |
| 20260510054929 | 49 | 180 | 0.0 | 0.0 | 0.00 | 0.10 | 0.00 | 95 | 1032.7 |
| 20260510054827 | 49 | 180 | 0.0 | 0.0 | 0.00 | 0.10 | 0.00 | 95 | 1032.8 |
| 20260510053830 | 49 | 180 | 0.0 | 0.0 | 0.00 | 0.10 | 0.00 | 95 | 1033.0 |
| 20260510051828 | 49 | 180 | 0.0 | 0.0 | 0.00 | 0.10 | 0.00 | 94 | 1033.1 |
| 20260510050830 | 49 | 180 | 0.0 | 0.0 | 0.00 | 0.10 | 0.00 | 95 | 1033.0 |
| 20260510045828 | 49 | 180 | 0.0 | 0.0 | 0.00 | 0.10 | 0.00 | 95 | 1033.0 |
| 20260510044828 | 49 | 180 | 0.0 | 0.0 | 0.00 | 0.10 | 0.00 | 95 | 1033.2 |
| 20260510043829 | 49 | 180 | 0.0 | 0.0 | 0.00 | 0.10 | 0.00 | 95 | 1033.3 |
| 20260510042928 | 49 | 180 | 0.0 | 0.0 | 0.00 | 0.10 | 0.00 | 95 | 1033.3 |
| 20260510041927 | 49 | 180 | 0.0 | 0.0 | 0.00 | 0.10 | 0.00 | 95 | 1033.3 |
| 20260510040929 | 49 | 180 | 0.0 | 0.0 | 0.00 | 0.10 | 0.00 | 95 | 1033.4 |
| 20260510040017 | 50 | 180 | 0.0 | 0.0 | 0.00 | 0.10 | 0.00 | 94 | 1033.5 |
| 20260510035914 | 50 | 180 | 0.0 | 0.0 | 0.00 | 0.10 | 0.10 | 95 | 1033.5 |
| 20260510034916 | 50 | 180 | 0.0 | 0.0 | 0.00 | 0.10 | 0.10 | 95 | 1033.3 |
| 20260510033915 | 50 | 180 | 0.0 | 0.0 | 0.00 | 0.10 | 0.10 | 95 | 1033.2 |
| 20260510032917 | 50 | 180 | 0.0 | 0.0 | 0.00 | 0.10 | 0.10 | 93 | 1033.1 |
| 20260510031915 | 50 | 180 | 0.0 | 0.0 | 0.00 | 0.10 | 0.10 | 94 | 1033.0 |
| 20260510030915 | 50 | 180 | 0.0 | 0.0 | 0.00 | 0.10 | 0.10 | 94 | 1032.9 |
| 20260510025817 | 50 | 180 | 0.0 | 0.0 | 0.00 | 0.10 | 0.10 | 94 | 1032.9 |
| 20260510024817 | 51 | 180 | 0.0 | 0.0 | 0.00 | 0.10 | 0.10 | 94 | 1032.8 |
| 20260510023816 | 51 | 180 | 0.0 | 0.0 | 0.00 | 0.10 | 0.10 | 94 | 1032.9 |
| 20260510023716 | 51 | 180 | 0.0 | 0.0 | 0.00 | 0.10 | 0.10 | 94 | 1032.9 |
| 20260510022716 | 51 | 180 | 0.0 | 0.0 | 0.00 | 0.10 | 0.10 | 94 | 1032.9 |
| 20260510021814 | 51 | 180 | 0.0 | 0.0 | 0.00 | 0.10 | 0.10 | 94 | 1032.7 |
| 20260510020817 | 51 | 180 | 0.0 | 0.0 | 0.00 | 0.10 | 0.10 | 93 | 1032.9 |
| 20260510015816 | 51 | 180 | 0.0 | 0.0 | 0.00 | 0.10 | 0.10 | 93 | 1032.7 |
| 20260510014817 | 52 | 180 | 0.0 | 0.0 | 0.00 | 0.10 | 0.10 | 92 | 1032.8 |
| 20260510013816 | 52 | 180 | 0.0 | 0.0 | 0.00 | 0.10 | 0.10 | 94 | 1032.8 |
| 20260510012816 | 52 | 180 | 0.0 | 0.0 | 0.00 | 0.10 | 0.10 | 93 | 1032.8 |
| 20260510011817 | 53 | 180 | 0.0 | 0.0 | 0.00 | 0.10 | 0.10 | 92 | 1032.6 |
| 20260510010817 | 53 | 180 | 0.0 | 0.0 | 0.00 | 0.10 | 0.10 | 94 | 1032.8 |
| 20260510005914 | 53 | 180 | 0.0 | 0.0 | 0.00 | 0.10 | 0.10 | 93 | 1032.6 |
| 20260510005816 | 53 | 180 | 0.0 | 0.0 | 0.00 | 0.10 | 0.10 | 93 | 1032.6 |
| 20260510004915 | 53 | 180 | 0.0 | 0.0 | 0.00 | 0.10 | 0.10 | 93 | 1032.3 |
| 20260510003916 | 53 | 180 | 0.0 | 0.0 | 0.00 | 0.10 | 0.10 | 93 | 1032.4 |
| 20260510001915 | 54 | 180 | 0.0 | 0.0 | 0.00 | 0.10 | 0.10 | 92 | 1032.3 |
| 20260510001014 | 54 | 180 | 0.0 | 0.0 | 0.00 | 0.10 | 0.10 | 92 | 1032.3 |
| 20260509235917 | 54 | 180 | 0.0 | 0.0 | 0.00 | 0.10 | 0.10 | 91 | 1032.3 |
| 20260509235815 | 54 | 180 | 0.0 | 0.0 | 0.00 | 0.10 | 0.10 | 92 | 1032.3 |
| 20260509234817 | 55 | 180 | 0.0 | 0.0 | 0.00 | 0.10 | 0.10 | 91 | 1032.4 |
| 20260509233816 | 55 | 180 | 0.0 | 0.0 | 0.00 | 0.10 | 0.10 | 91 | 1032.4 |
| 20260509232816 | 55 | 180 | 0.0 | 0.0 | 0.00 | 0.10 | 0.10 | 90 | 1032.3 |
| 20260509225914 | 56 | 180 | 0.0 | 0.0 | 0.00 | 0.10 | 0.10 | 91 | 1032.2 |
| 20260509225817 | 56 | 180 | 0.0 | 0.0 | 0.00 | 0.10 | 0.10 | 91 | 1032.3 |
| 20260509224915 | 56 | 180 | 0.0 | 0.0 | 0.00 | 0.10 | 0.10 | 91 | 1032.2 |
| 20260509223918 | 56 | 180 | 0.0 | 0.0 | 0.00 | 0.10 | 0.10 | 91 | 1032.3 |
| 20260509222915 | 56 | 180 | 0.0 | 0.0 | 0.00 | 0.10 | 0.10 | 90 | 1032.3 |
| 20260509215915 | 56 | 180 | 0.0 | 0.0 | 0.01 | 0.10 | 0.10 | 89 | 1032.4 |
| 20260509215816 | 56 | 180 | 0.0 | 0.0 | 0.01 | 0.10 | 0.10 | 89 | 1032.3 |
| 20260509214817 | 56 | 180 | 0.0 | 0.0 | 0.09 | 0.10 | 0.10 | 88 | 1032.4 |
| 20260509212816 | 56 | 180 | 0.0 | 0.0 | 0.09 | 0.10 | 0.10 | 88 | 1032.7 |
| 20260509211915 | 56 | 180 | 0.0 | 0.0 | 0.09 | 0.10 | 0.10 | 89 | 1032.8 |
| 20260509210915 | 56 | 180 | 0.0 | 0.0 | 0.08 | 0.09 | 0.09 | 89 | 1032.6 |
| 20260509205918 | 56 | 180 | 0.0 | 0.0 | 0.09 | 0.09 | 0.09 | 85 | 1032.5 |
| 20260509205817 | 56 | 180 | 0.0 | 0.0 | 0.09 | 0.09 | 0.09 | 85 | 1032.5 |
| 20260509204816 | 57 | 180 | 0.0 | 0.0 | 0.01 | 0.01 | 0.01 | 84 | 1032.6 |
| 20260509202917 | 58 | 180 | 0.0 | 0.0 | 0.01 | 0.01 | 0.01 | 81 | 1032.4 |